{"data":{"norad_id":62170,"intl_designator":"2024-225H","name":"STARLINK-32538","alt_names":[],"object_type":"PAYLOAD","status":"ACTIVE","operator":null,"country":"US","launch_date":"2024-11-30","launch_site_code":"AFWTR","launch_vehicle":null,"mission":null,"orbit_class":"UNKNOWN","rcs_meters":null,"size_class":null,"mass_kg":null,"dimensions":null,"purposes":["comms"],"wikipedia_slug":null,"has_3d_model":false,"image_url":null,"decayed_at":null,"tle_current":{"epoch":"2026-05-24T22:36:35.857152Z","epoch_age_seconds":90424,"freshness":"FRESH","line1":"1 62170U 24225H   26144.94208168  .00002805  00000+0  24273-3 0  9991","line2":"2 62170  70.0018 332.3268 0002687 267.4844  92.6008 14.98337375 81294","mean_motion":14.98337375,"eccentricity":0.0002687,"inclination_deg":70.0018,"raan_deg":332.3268,"arg_perigee_deg":267.4844,"mean_anomaly_deg":92.6008,"bstar":0.00024273,"rev_number":8129,"period_min":96.106526075277,"perigee_km":570.16557375714,"apogee_km":573.90059516052,"semimajor_km":6950.1700844588,"source":"CELESTRAK","updated_at":"2026-05-25T13:38:19.601691Z"}}}